Siemreap, Cambodia

1:09 PM +07 on April 30, 2017 (GMT +0700)
Siem Reap

Weather History for VDSR - November, 2011

Change the Weather History Date:

Thursday, November 17, 2011

  Actual Average Record
Temperature  
Mean Temperature 82 °F -  
Max Temperature 89 °F - - ()
Min Temperature 74 °F - - ()
Cooling Degree Days 16    
Growing Degree Days 32 (Base 50)    
Moisture  
Dew Point 70 °F    
Average Humidity 62    
Maximum Humidity 85    
Minimum Humidity 46    
Precipitation  
Precipitation 0.00 in - - ()
Sea Level Pressure  
Sea Level Pressure 29.77 in    
Wind  
Wind Speed 3 mph ()    
Max Wind Speed 7 mph    
Max Gust Speed -    
Visibility 6.0 miles    
Events      
T = Trace of Precipitation, MM = Missing Value Source: Averaged Metar Reports

Daily Weather History Graph

Daily Weather History Graph

Search for Another Location

Airport or City:

Trip Planner

Search our weather history database for the weather conditions in past years. The results will help you decide how hot, cold, wet, or windy it might be!

Date:

Astronomy

Nov. 17, 2011 Rise Set
Actual Time 6:04 AM +07 5:34 PM +07
Civil Twilight 5:41 AM +07 5:56 PM +07
Nautical Twilight 5:16 AM +07 6:22 PM +07
Astronomical Twilight 4:50 AM +07 6:48 PM +07
Moon 11:04 PM +07 (11/17) 11:05 AM +07 (11/17)
Length of Visible Light 12h 14m
Length of Day
11h 30m
Waning Gibbous, 65% of the Moon is Illuminated
Nov 17
Waning Gibbous
Nov 18
Last Quarter
Nov 25
New
Dec 2
First Quarter
Dec 10
Full

Hourly Weather History & Observations

Time (+07) Temp. Heat Index Dew Point Humidity Pressure Visibility Wind Dir Wind Speed Gust Speed Precip Events Conditions
7:00 AM 76 °F - 72 °F 85% 29.75 in 6 mi North 2.2 mph - -   Scattered Clouds
7:00 AM 77.0 °F - 71.6 °F 83% 29.83 in 5.6 mi NNW 3.5 mph - N/A   Partly Cloudy
7:30 AM 77.0 °F - 71.6 °F 83% 29.83 in 5.6 mi NNW 5.8 mph - N/A   Partly Cloudy
8:00 AM 78.8 °F - 69.8 °F 74% 29.83 in 6.2 mi North 4.6 mph - N/A   Partly Cloudy
8:30 AM 80.6 °F 83.9 °F 69.8 °F 70% 29.86 in 6.2 mi NNE 5.8 mph - N/A   Partly Cloudy
9:00 AM 82.4 °F 86.3 °F 69.8 °F 66% 29.86 in 6.2 mi North 4.6 mph - N/A   Partly Cloudy
9:30 AM 82.4 °F 86.3 °F 69.8 °F 66% 29.86 in 6.2 mi North 4.6 mph - N/A   Partly Cloudy
10:00 AM 84.2 °F 87.3 °F 68.0 °F 58% 29.86 in 6.2 mi NE 4.6 mph - N/A   Partly Cloudy
10:30 AM 84.2 °F 87.3 °F 68.0 °F 58% 29.83 in 6.2 mi NNE 4.6 mph - N/A   Partly Cloudy
11:00 AM 86.0 °F 89.4 °F 68.0 °F 55% 29.83 in 6.2 mi ENE 4.6 mph - N/A   Partly Cloudy
11:30 AM 86.0 °F 89.4 °F 68.0 °F 55% 29.80 in 6.2 mi North 4.6 mph - N/A   Partly Cloudy
12:00 PM 87.8 °F 91.4 °F 68.0 °F 52% 29.80 in 6.2 mi NW 4.6 mph - N/A   Partly Cloudy
12:30 PM 87.8 °F 91.4 °F 68.0 °F 52% 29.77 in 6.2 mi Variable 3.5 mph - N/A   Partly Cloudy
1:00 PM 87.8 °F 92.6 °F 69.8 °F 55% 29.74 in 6.2 mi Variable 2.3 mph - N/A   Partly Cloudy
1:30 PM 89.6 °F 93.4 °F 68.0 °F 49% 29.74 in 6.2 mi Variable 3.5 mph - N/A   Partly Cloudy
2:00 PM 89.6 °F 93.4 °F 68.0 °F 49% 29.71 in 6.2 mi North 6.9 mph - N/A   Partly Cloudy
2:30 PM 89.6 °F 93.4 °F 68.0 °F 49% 29.71 in 6.2 mi Variable 3.5 mph - N/A   Partly Cloudy
3:00 PM 89.6 °F 92.2 °F 66.2 °F 46% 29.68 in 6.2 mi Variable 3.5 mph - N/A   Partly Cloudy
3:30 PM 89.6 °F 93.4 °F 68.0 °F 49% 29.68 in 6.2 mi NE 5.8 mph - N/A   Partly Cloudy
4:00 PM 89.6 °F 92.2 °F 66.2 °F 46% 29.68 in 6.2 mi NNE 5.8 mph - N/A   Partly Cloudy
4:30 PM 89.6 °F 93.4 °F 68.0 °F 49% 29.71 in 6.2 mi North 5.8 mph - N/A   Partly Cloudy
5:00 PM 87.8 °F 91.4 °F 68.0 °F 52% 29.71 in 6.2 mi North 3.5 mph - N/A   Scattered Clouds
5:30 PM 86.0 °F 90.4 °F 69.8 °F 58% 29.71 in 6.2 mi North 2.3 mph - N/A   Scattered Clouds
6:00 PM 86.0 °F 90.4 °F 69.8 °F 58% 29.71 in 6.2 mi North 1.2 mph - N/A   Partly Cloudy
6:30 PM 84.2 °F 88.4 °F 69.8 °F 62% 29.74 in 5.6 mi Variable 2.3 mph - N/A   Partly Cloudy
7:00 PM 84.2 °F 89.6 °F 71.6 °F 66% 29.74 in 5.6 mi Variable 1.2 mph - N/A   Partly Cloudy
7:30 PM 82.4 °F 87.2 °F 71.6 °F 70% 29.77 in 5.6 mi NNE 1.2 mph - N/A   Unknown
8:00 PM 82.4 °F 87.2 °F 71.6 °F 70% 29.77 in 5.6 mi North 1.2 mph - N/A   Unknown
8:30 PM 82.4 °F 87.2 °F 71.6 °F 70% 29.77 in 5.6 mi Calm Calm - N/A   Unknown
9:00 PM 82.4 °F 87.2 °F 71.6 °F 70% 29.77 in 5.6 mi Calm Calm - N/A   Unknown
9:30 PM 80.6 °F 84.6 °F 71.6 °F 74% 29.80 in 5.6 mi NE 2.3 mph - N/A   Unknown
10:00 PM 80.6 °F 84.6 °F 71.6 °F 74% 29.77 in 5.6 mi North 1.2 mph - N/A   Unknown
10:30 PM 80.6 °F 84.6 °F 71.6 °F 74% 29.77 in 5.6 mi Variable 1.2 mph - N/A   Unknown
11:00 PM 78.8 °F - 71.6 °F 78% 29.77 in 5.6 mi NNE 1.2 mph - N/A   Unknown